VLG3BC GCXO-LEZL

Flight info

Callsign VLG3BC
Flight time 1h 56m
Altitude 36000
Route VASTO UN858 AKUDA OBOLO PESAS N858 OSLEP
Aircraft A320/M-SDE3FGHIRWY/LB1

Departure

Time 2026-04-16 08:49
Airport Tenerife Norte-Ciudad de La Laguna Airport (GCXO)

Arrival

Time 2026-04-16 10:45
Airport Seville Airport (LEZL)
Time Latitude Longitude Altitude Speed Heading
2026-04-16 08:04 28.48694 -16.34733 2074 ft 0 kts 36°
2026-04-16 08:21 28.48694 -16.34734 2074 ft 0 kts 36°
2026-04-16 08:24 28.48693 -16.34734 2073 ft 0 kts 36°
2026-04-16 08:36 28.48677 -16.34748 2070 ft 3 kts 36°
2026-04-16 08:37 28.48659 -16.34763 2092 ft 3 kts 36°
2026-04-16 08:37 28.48640 -16.34778 2096 ft 3 kts 36°
2026-04-16 08:37 28.48623 -16.34793 2098 ft 3 kts 41°
2026-04-16 08:37 28.48609 -16.34811 2093 ft 3 kts 75°
2026-04-16 08:38 28.48608 -16.34834 2085 ft 3 kts 108°
2026-04-16 08:38 28.48611 -16.34845 2087 ft 1 kts 111°
2026-04-16 08:40 28.48611 -16.34844 2087 ft 1 kts 111°
2026-04-16 08:41 28.48598 -16.34803 2092 ft 9 kts 110°
2026-04-16 08:41 28.48561 -16.34690 2091 ft 20 kts 110°
2026-04-16 08:41 28.48506 -16.34526 2082 ft 25 kts 111°
2026-04-16 08:41 28.48457 -16.34381 2075 ft 21 kts 110°
2026-04-16 08:42 28.48404 -16.34222 2072 ft 15 kts 110°
2026-04-16 08:42 28.48360 -16.34088 2069 ft 21 kts 110°
2026-04-16 08:42 28.48329 -16.33994 2064 ft 18 kts 111°
2026-04-16 08:42 28.48281 -16.33850 2061 ft 21 kts 111°
2026-04-16 08:43 28.48236 -16.33716 2057 ft 17 kts 110°
2026-04-16 08:43 28.48191 -16.33578 2053 ft 20 kts 110°
2026-04-16 08:43 28.48145 -16.33441 2055 ft 19 kts 110°
2026-04-16 08:43 28.48096 -16.33292 2052 ft 21 kts 110°
2026-04-16 08:44 28.48049 -16.33150 2044 ft 19 kts 110°
2026-04-16 08:44 28.48000 -16.33003 2031 ft 20 kts 110°
2026-04-16 08:44 28.47950 -16.32853 2030 ft 13 kts 110°
2026-04-16 08:44 28.47914 -16.32744 2027 ft 16 kts 111°
2026-04-16 08:45 28.47874 -16.32626 2025 ft 14 kts 111°
2026-04-16 08:45 28.47836 -16.32571 2023 ft 5 kts 139°
2026-04-16 08:45 28.47818 -16.32553 2024 ft 2 kts 139°
2026-04-16 08:45 28.47799 -16.32537 2025 ft 7 kts 150°
2026-04-16 08:46 28.47771 -16.32534 2027 ft 0 kts 187°
2026-04-16 08:46 28.47758 -16.32540 2027 ft 4 kts 207°
2026-04-16 08:47 28.47747 -16.32583 2030 ft 7 kts 278°
2026-04-16 08:47 28.47755 -16.32610 2028 ft 0 kts 292°
2026-04-16 08:47 28.47756 -16.32613 2028 ft 4 kts 292°
2026-04-16 08:48 28.47805 -16.32757 2027 ft 45 kts 290°
2026-04-16 08:48 28.47999 -16.33348 2045 ft 111 kts 290°
2026-04-16 08:48 28.48338 -16.34367 2082 ft 162 kts 291°
2026-04-16 08:48 28.48761 -16.35652 2489 ft 175 kts 293°
2026-04-16 08:49 28.49208 -16.36931 3293 ft 173 kts 293°
2026-04-16 08:49 28.49658 -16.38205 3934 ft 176 kts 291°
2026-04-16 08:49 28.50137 -16.39576 4243 ft 197 kts 290°
2026-04-16 08:49 28.50670 -16.41107 4486 ft 220 kts 290°
2026-04-16 08:50 28.51263 -16.42819 4799 ft 245 kts 291°
2026-04-16 08:50 28.51919 -16.44704 5198 ft 267 kts 289°
2026-04-16 08:50 28.52612 -16.46704 5891 ft 275 kts 289°
2026-04-16 08:50 28.53317 -16.48737 6735 ft 278 kts 288°
2026-04-16 08:51 28.54030 -16.50791 7564 ft 281 kts 289°
2026-04-16 08:51 28.55040 -16.52720 8356 ft 289 kts 308°
2026-04-16 08:51 28.56594 -16.54202 9184 ft 297 kts 328°
2026-04-16 08:51 28.58549 -16.55021 9990 ft 305 kts 348°
2026-04-16 08:52 28.60687 -16.55024 10720 ft 312 kts 10°
2026-04-16 08:52 28.62737 -16.54172 11308 ft 324 kts 30°
2026-04-16 08:52 28.64460 -16.52416 11516 ft 346 kts 56°
2026-04-16 08:52 28.65435 -16.49876 11879 ft 357 kts 81°
2026-04-16 08:53 28.65429 -16.47053 12467 ft 359 kts 105°
2026-04-16 08:53 28.64456 -16.44455 12972 ft 358 kts 128°
2026-04-16 08:53 28.62728 -16.42456 13184 ft 355 kts 142°
2026-04-16 08:53 28.60915 -16.40513 13850 ft 361 kts 135°
2026-04-16 08:54 28.59339 -16.38272 14468 ft 366 kts 125°
2026-04-16 08:54 28.58025 -16.35768 15073 ft 371 kts 121°
2026-04-16 08:54 28.56764 -16.33242 15985 ft 359 kts 121°
2026-04-16 08:54 28.55599 -16.30814 17340 ft 340 kts 116°
2026-04-16 08:55 28.54799 -16.28313 18468 ft 339 kts 105°
2026-04-16 08:55 28.54452 -16.25589 18608 ft 359 kts 91°
2026-04-16 08:55 28.54688 -16.22762 18874 ft 370 kts 77°
2026-04-16 08:55 28.55379 -16.19896 19098 ft 384 kts 73°
2026-04-16 08:56 28.56109 -16.16919 19332 ft 396 kts 73°
2026-04-16 08:56 28.56832 -16.13876 19744 ft 401 kts 73°
2026-04-16 08:56 28.57553 -16.10801 20249 ft 403 kts 73°
2026-04-16 08:56 28.58275 -16.07709 20773 ft 405 kts 73°
2026-04-16 08:57 28.59004 -16.04602 21287 ft 407 kts 73°
2026-04-16 08:57 28.59737 -16.01485 21801 ft 409 kts 73°
2026-04-16 08:57 28.60478 -15.98349 22290 ft 412 kts 73°
2026-04-16 08:57 28.61226 -15.95190 22734 ft 415 kts 72°
2026-04-16 08:58 28.61981 -15.92008 23191 ft 418 kts 72°
2026-04-16 08:58 28.62742 -15.88808 23653 ft 420 kts 72°
2026-04-16 08:58 28.63509 -15.85586 24018 ft 423 kts 72°
2026-04-16 08:58 28.64278 -15.82340 24381 ft 426 kts 72°
2026-04-16 08:59 28.65048 -15.79072 24723 ft 429 kts 72°
2026-04-16 08:59 28.65823 -15.75777 25057 ft 432 kts 71°
2026-04-16 08:59 28.66602 -15.72459 25401 ft 436 kts 71°
2026-04-16 08:59 28.67385 -15.69114 25714 ft 439 kts 71°
2026-04-16 09:00 28.68172 -15.65748 26036 ft 442 kts 71°
2026-04-16 09:00 28.68965 -15.62355 26353 ft 445 kts 71°
2026-04-16 09:00 28.69763 -15.58939 26656 ft 448 kts 71°
2026-04-16 09:00 28.70570 -15.55497 26971 ft 451 kts 71°
2026-04-16 09:01 28.72197 -15.48546 27597 ft 457 kts 71°
2026-04-16 09:01 28.73016 -15.45037 27907 ft 460 kts 71°
2026-04-16 09:01 28.73838 -15.41503 28219 ft 463 kts 70°
2026-04-16 09:02 28.74665 -15.37946 28523 ft 466 kts 70°
2026-04-16 09:02 28.75496 -15.34369 28820 ft 468 kts 70°
2026-04-16 09:02 28.76328 -15.30770 29109 ft 471 kts 70°
2026-04-16 09:02 28.77161 -15.27151 29394 ft 474 kts 70°
2026-04-16 09:03 28.78000 -15.23511 29662 ft 476 kts 70°
2026-04-16 09:03 28.78847 -15.19849 29925 ft 479 kts 70°
2026-04-16 09:03 28.79698 -15.16171 30189 ft 481 kts 70°
2026-04-16 09:03 28.80552 -15.12470 30418 ft 484 kts 70°
2026-04-16 09:04 28.81405 -15.08754 30652 ft 485 kts 70°
2026-04-16 09:04 28.82259 -15.05027 30890 ft 487 kts 70°
2026-04-16 09:04 28.83117 -15.01283 31131 ft 488 kts 70°
2026-04-16 09:04 28.83962 -14.97590 31458 ft 487 kts 70°
2026-04-16 09:05 28.84814 -14.93854 31821 ft 486 kts 70°
2026-04-16 09:05 28.85742 -14.90164 32184 ft 481 kts 63°
2026-04-16 09:05 28.87097 -14.86723 32504 ft 471 kts 54°
2026-04-16 09:05 28.88877 -14.83635 32824 ft 462 kts 45°
2026-04-16 09:06 28.91013 -14.80957 33135 ft 452 kts 36°
2026-04-16 09:06 28.93427 -14.78716 33450 ft 444 kts 27°
2026-04-16 09:06 28.95993 -14.76777 33762 ft 442 kts 26°
2026-04-16 09:06 28.98554 -14.74845 34093 ft 441 kts 26°
2026-04-16 09:07 29.01109 -14.72910 34393 ft 441 kts 27°
2026-04-16 09:07 29.03661 -14.70971 34653 ft 440 kts 27°
2026-04-16 09:07 29.06212 -14.69031 34890 ft 441 kts 27°
2026-04-16 09:07 29.08768 -14.67089 35118 ft 441 kts 27°
2026-04-16 09:08 29.11325 -14.65148 35340 ft 441 kts 27°
2026-04-16 09:08 29.13885 -14.63207 35550 ft 442 kts 27°
2026-04-16 09:08 29.16451 -14.61262 35759 ft 442 kts 27°
2026-04-16 09:08 29.19017 -14.59313 35958 ft 443 kts 27°
2026-04-16 09:09 29.21584 -14.57356 36115 ft 444 kts 27°
2026-04-16 09:09 29.26727 -14.53424 36130 ft 445 kts 28°
2026-04-16 09:10 29.31873 -14.49493 36140 ft 444 kts 28°
2026-04-16 09:10 29.37021 -14.45572 36131 ft 444 kts 28°
2026-04-16 09:11 29.42170 -14.41643 36129 ft 445 kts 28°
2026-04-16 09:11 29.47314 -14.37700 36132 ft 445 kts 28°
2026-04-16 09:12 29.52457 -14.33752 36126 ft 445 kts 28°
2026-04-16 09:12 29.57597 -14.29801 36130 ft 444 kts 28°
2026-04-16 09:13 29.62734 -14.25854 36142 ft 444 kts 28°
2026-04-16 09:13 29.67876 -14.21904 36135 ft 445 kts 29°
2026-04-16 09:14 29.73027 -14.17943 36124 ft 446 kts 29°
2026-04-16 09:14 29.78162 -14.13987 36123 ft 448 kts 29°
2026-04-16 09:15 29.83343 -14.09988 36123 ft 449 kts 29°
2026-04-16 09:15 29.88528 -14.05970 36127 ft 449 kts 30°
2026-04-16 09:16 29.93718 -14.01946 36133 ft 450 kts 30°
2026-04-16 09:16 29.98905 -13.97917 36139 ft 450 kts 30°
2026-04-16 09:17 30.04096 -13.93884 36140 ft 450 kts 29°
2026-04-16 09:17 30.09288 -13.89857 36138 ft 450 kts 29°
2026-04-16 09:18 30.14479 -13.85824 36137 ft 450 kts 30°
2026-04-16 09:18 30.19669 -13.81775 36131 ft 451 kts 30°
2026-04-16 09:19 30.24874 -13.77705 36129 ft 452 kts 31°
2026-04-16 09:19 30.30088 -13.73623 36127 ft 453 kts 31°
2026-04-16 09:20 30.35314 -13.69546 36140 ft 453 kts 30°
2026-04-16 09:20 30.40545 -13.65459 36134 ft 454 kts 30°
2026-04-16 09:21 30.45774 -13.61363 36136 ft 454 kts 31°
2026-04-16 09:21 30.50997 -13.57251 36142 ft 454 kts 31°
2026-04-16 09:22 30.56214 -13.53115 36152 ft 454 kts 31°
2026-04-16 09:22 30.61421 -13.48957 36155 ft 454 kts 32°
2026-04-16 09:23 30.66637 -13.44791 36141 ft 455 kts 32°
2026-04-16 09:23 30.71866 -13.40626 36137 ft 456 kts 32°
2026-04-16 09:24 30.77101 -13.36447 36141 ft 457 kts 32°
2026-04-16 09:24 30.82302 -13.32283 36144 ft 457 kts 32°
2026-04-16 09:25 30.87538 -13.28083 36149 ft 457 kts 33°
2026-04-16 09:25 30.92776 -13.23874 36152 ft 457 kts 32°
2026-04-16 09:26 30.98032 -13.19696 36146 ft 457 kts 32°
2026-04-16 09:26 31.03299 -13.15534 36153 ft 457 kts 32°
2026-04-16 09:27 31.08561 -13.11351 36147 ft 458 kts 32°
2026-04-16 09:27 31.13824 -13.07144 36147 ft 459 kts 33°
2026-04-16 09:28 31.19098 -13.02937 36130 ft 460 kts 32°
2026-04-16 09:28 31.24379 -12.98716 36130 ft 460 kts 32°
2026-04-16 09:29 31.29660 -12.94483 36137 ft 460 kts 33°
2026-04-16 09:29 31.34942 -12.90248 36141 ft 460 kts 33°
2026-04-16 09:30 31.39332 -12.86724 36131 ft 461 kts 32°
2026-04-16 09:30 31.44616 -12.82477 36144 ft 461 kts 33°
2026-04-16 09:31 31.49892 -12.78226 36151 ft 460 kts 33°
2026-04-16 09:31 31.55171 -12.73980 36148 ft 460 kts 33°
2026-04-16 09:32 31.60446 -12.69721 36146 ft 460 kts 34°
2026-04-16 09:32 31.65717 -12.65454 36141 ft 461 kts 33°
2026-04-16 09:33 31.70996 -12.61185 36136 ft 461 kts 34°
2026-04-16 09:33 31.76274 -12.56912 36137 ft 461 kts 34°
2026-04-16 09:34 31.81549 -12.52633 36143 ft 461 kts 34°
2026-04-16 09:34 31.86819 -12.48352 36157 ft 460 kts 34°
2026-04-16 09:35 31.92084 -12.44058 36151 ft 460 kts 34°
2026-04-16 09:35 31.97347 -12.39763 36141 ft 460 kts 35°
2026-04-16 09:36 32.02618 -12.35469 36143 ft 461 kts 35°
2026-04-16 09:36 32.07897 -12.31179 36142 ft 461 kts 35°
2026-04-16 09:37 32.13143 -12.26914 36150 ft 461 kts 35°
2026-04-16 09:37 32.18422 -12.22608 36153 ft 461 kts 35°
2026-04-16 09:38 32.23696 -12.18298 36145 ft 461 kts 35°
2026-04-16 09:38 32.28971 -12.13977 36162 ft 461 kts 35°
2026-04-16 09:39 32.34241 -12.09660 36164 ft 461 kts 36°
2026-04-16 09:39 32.39506 -12.05328 36157 ft 461 kts 35°
2026-04-16 09:40 32.44769 -12.01004 36151 ft 460 kts 36°
2026-04-16 09:40 32.50026 -11.96670 36153 ft 461 kts 36°
2026-04-16 09:41 32.55285 -11.92323 36150 ft 461 kts 36°
2026-04-16 09:41 32.60545 -11.87974 36168 ft 461 kts 36°
2026-04-16 09:42 32.65802 -11.83630 36168 ft 460 kts 36°
2026-04-16 09:42 32.71054 -11.79285 36175 ft 460 kts 36°
2026-04-16 09:43 32.76262 -11.74965 36169 ft 460 kts 36°
2026-04-16 09:43 32.81504 -11.70609 36160 ft 460 kts 36°
2026-04-16 09:44 32.86742 -11.66243 36175 ft 460 kts 36°
2026-04-16 09:44 32.91980 -11.61879 36167 ft 460 kts 36°
2026-04-16 09:45 32.97218 -11.57514 36163 ft 460 kts 36°
2026-04-16 09:45 33.02456 -11.53140 36175 ft 460 kts 37°
2026-04-16 09:46 33.07687 -11.48762 36174 ft 460 kts 37°
2026-04-16 09:46 33.12880 -11.44402 36174 ft 459 kts 37°
2026-04-16 09:47 33.18102 -11.40005 36180 ft 459 kts 37°
2026-04-16 09:47 33.23311 -11.35599 36190 ft 459 kts 36°
2026-04-16 09:48 33.28514 -11.31187 36179 ft 458 kts 36°
2026-04-16 09:48 33.33708 -11.26777 36178 ft 458 kts 36°
2026-04-16 09:49 33.38901 -11.22364 36182 ft 458 kts 37°
2026-04-16 09:49 33.44090 -11.17947 36183 ft 458 kts 37°
2026-04-16 09:50 33.49271 -11.13520 36186 ft 457 kts 38°
2026-04-16 09:50 33.54448 -11.09096 36198 ft 457 kts 38°
2026-04-16 09:51 33.59619 -11.04673 36194 ft 457 kts 37°
2026-04-16 09:51 33.64782 -11.00237 36186 ft 456 kts 37°
2026-04-16 09:52 33.69945 -10.95803 36187 ft 456 kts 37°
2026-04-16 09:52 33.75106 -10.91367 36182 ft 456 kts 37°
2026-04-16 09:53 33.80260 -10.86925 36185 ft 456 kts 38°
2026-04-16 09:53 33.85411 -10.82484 36182 ft 455 kts 38°
2026-04-16 09:54 33.90562 -10.78050 36185 ft 455 kts 37°
2026-04-16 09:54 33.95678 -10.73640 36187 ft 455 kts 38°
2026-04-16 09:55 34.00815 -10.69186 36180 ft 455 kts 38°
2026-04-16 09:55 34.05947 -10.64723 36178 ft 454 kts 38°
2026-04-16 09:56 34.11073 -10.60262 36188 ft 454 kts 38°
2026-04-16 09:56 34.16199 -10.55805 36173 ft 454 kts 37°
2026-04-16 09:57 34.21322 -10.51352 36185 ft 454 kts 38°
2026-04-16 09:57 34.26439 -10.46895 36181 ft 453 kts 38°
2026-04-16 09:58 34.31547 -10.42422 36184 ft 453 kts 38°
2026-04-16 09:58 34.36651 -10.37945 36180 ft 453 kts 38°
2026-04-16 09:59 34.41753 -10.33467 36180 ft 453 kts 38°
2026-04-16 09:59 34.46850 -10.28980 36180 ft 453 kts 38°
2026-04-16 10:00 34.51952 -10.24499 36179 ft 453 kts 38°
2026-04-16 10:00 34.57057 -10.20017 36171 ft 453 kts 38°
2026-04-16 10:01 34.64705 -10.13273 36181 ft 453 kts 38°
2026-04-16 10:01 34.69811 -10.08774 36176 ft 453 kts 37°
2026-04-16 10:02 34.74926 -10.04283 36181 ft 454 kts 38°
2026-04-16 10:02 34.80044 -9.99788 36184 ft 454 kts 38°
2026-04-16 10:03 34.85150 -9.95272 36184 ft 454 kts 38°
2026-04-16 10:03 34.90261 -9.90752 36183 ft 454 kts 38°
2026-04-16 10:04 34.95370 -9.86226 36182 ft 454 kts 38°
2026-04-16 10:04 35.00475 -9.81693 36175 ft 454 kts 38°
2026-04-16 10:05 35.05583 -9.77160 36179 ft 454 kts 37°
2026-04-16 10:05 35.10692 -9.72628 36183 ft 454 kts 38°
2026-04-16 10:06 35.15757 -9.68103 36180 ft 454 kts 38°
2026-04-16 10:06 35.20857 -9.63547 36179 ft 454 kts 38°
2026-04-16 10:07 35.25961 -9.58991 36179 ft 454 kts 38°
2026-04-16 10:07 35.31064 -9.54427 36182 ft 454 kts 38°
2026-04-16 10:08 35.36158 -9.49846 36179 ft 454 kts 38°
2026-04-16 10:08 35.41254 -9.45264 36171 ft 454 kts 38°
2026-04-16 10:09 35.46358 -9.40677 36173 ft 455 kts 38°
2026-04-16 10:09 35.51464 -9.36080 36177 ft 455 kts 38°
2026-04-16 10:10 35.56567 -9.31472 36175 ft 455 kts 38°
2026-04-16 10:10 35.61669 -9.26862 36175 ft 455 kts 38°
2026-04-16 10:11 35.66766 -9.22244 36182 ft 455 kts 38°
2026-04-16 10:11 35.71868 -9.17616 36184 ft 456 kts 38°
2026-04-16 10:12 35.76970 -9.12982 36186 ft 456 kts 38°
2026-04-16 10:12 35.82066 -9.08338 36177 ft 456 kts 38°
2026-04-16 10:13 35.87165 -9.03692 36171 ft 456 kts 38°
2026-04-16 10:13 35.92266 -8.99030 36178 ft 456 kts 38°
2026-04-16 10:14 35.97212 -8.94140 36176 ft 455 kts 47°
2026-04-16 10:14 36.01378 -8.88273 36174 ft 454 kts 51°
2026-04-16 10:15 36.05473 -8.82387 36178 ft 455 kts 51°
2026-04-16 10:15 36.09597 -8.76457 36176 ft 455 kts 51°
2026-04-16 10:16 36.13723 -8.70524 36171 ft 455 kts 50°
2026-04-16 10:16 36.17853 -8.64584 36172 ft 455 kts 50°
2026-04-16 10:17 36.21979 -8.58626 36170 ft 456 kts 50°
2026-04-16 10:17 36.26103 -8.52656 36172 ft 456 kts 50°
2026-04-16 10:18 36.30227 -8.46674 36176 ft 457 kts 50°
2026-04-16 10:18 36.34349 -8.40682 36176 ft 457 kts 50°
2026-04-16 10:19 36.38471 -8.34679 36144 ft 458 kts 50°
2026-04-16 10:19 36.40535 -8.31672 35880 ft 458 kts 50°
2026-04-16 10:19 36.41903 -8.29679 35716 ft 458 kts 50°
2026-04-16 10:20 36.43968 -8.26670 35469 ft 458 kts 50°
2026-04-16 10:20 36.46033 -8.23661 35225 ft 458 kts 50°
2026-04-16 10:20 36.48097 -8.20647 34990 ft 458 kts 50°
2026-04-16 10:20 36.50164 -8.17625 34750 ft 459 kts 50°
2026-04-16 10:21 36.52257 -8.14560 34509 ft 459 kts 50°
2026-04-16 10:21 36.54323 -8.11535 34277 ft 459 kts 50°
2026-04-16 10:21 36.56362 -8.08544 34022 ft 459 kts 50°
2026-04-16 10:21 36.58425 -8.05513 33755 ft 459 kts 50°
2026-04-16 10:22 36.60514 -8.02439 33479 ft 458 kts 50°
2026-04-16 10:22 36.62566 -7.99418 33202 ft 456 kts 50°
2026-04-16 10:22 36.64606 -7.96411 32963 ft 454 kts 50°
2026-04-16 10:22 36.66607 -7.93452 32698 ft 452 kts 50°
2026-04-16 10:23 36.68627 -7.90470 32443 ft 449 kts 50°
2026-04-16 10:23 36.70641 -7.87501 32189 ft 447 kts 50°
2026-04-16 10:23 36.72647 -7.84545 31937 ft 445 kts 50°
2026-04-16 10:23 36.74636 -7.81606 31609 ft 442 kts 50°
2026-04-16 10:24 36.76609 -7.78685 31041 ft 439 kts 50°
2026-04-16 10:24 36.78570 -7.75777 30481 ft 436 kts 50°
2026-04-16 10:24 36.80519 -7.72887 29869 ft 434 kts 50°
2026-04-16 10:24 36.82448 -7.70020 29322 ft 429 kts 50°
2026-04-16 10:25 36.84356 -7.67178 28776 ft 425 kts 50°
2026-04-16 10:25 36.86245 -7.64365 28240 ft 420 kts 50°
2026-04-16 10:25 36.88115 -7.61582 27717 ft 416 kts 50°
2026-04-16 10:25 36.89965 -7.58825 27204 ft 412 kts 50°
2026-04-16 10:26 36.91800 -7.56094 26694 ft 408 kts 49°
2026-04-16 10:26 36.93616 -7.53391 26219 ft 404 kts 49°
2026-04-16 10:26 36.95413 -7.50713 25732 ft 400 kts 49°
2026-04-16 10:26 36.97193 -7.48055 25262 ft 397 kts 49°
2026-04-16 10:27 36.98952 -7.45419 24799 ft 393 kts 49°
2026-04-16 10:27 37.00696 -7.42806 24347 ft 389 kts 49°
2026-04-16 10:27 37.02424 -7.40213 23882 ft 387 kts 49°
2026-04-16 10:27 37.04140 -7.37635 23369 ft 384 kts 49°
2026-04-16 10:28 37.05847 -7.35087 22897 ft 380 kts 49°
2026-04-16 10:28 37.07543 -7.32571 22441 ft 376 kts 49°
2026-04-16 10:28 37.09227 -7.30077 21978 ft 374 kts 49°
2026-04-16 10:28 37.10898 -7.27600 21513 ft 371 kts 49°
2026-04-16 10:29 37.12558 -7.25135 21043 ft 369 kts 49°
2026-04-16 10:29 37.14206 -7.22680 20575 ft 368 kts 49°
2026-04-16 10:29 37.15731 -7.20114 20101 ft 367 kts 58°
2026-04-16 10:29 37.16837 -7.17234 19628 ft 367 kts 70°
2026-04-16 10:30 37.17504 -7.14145 19156 ft 367 kts 76°
2026-04-16 10:30 37.18084 -7.11027 18683 ft 367 kts 76°
2026-04-16 10:30 37.18670 -7.07915 18174 ft 367 kts 76°
2026-04-16 10:30 37.19258 -7.04810 17695 ft 365 kts 76°
2026-04-16 10:31 37.19844 -7.01723 17226 ft 363 kts 76°
2026-04-16 10:31 37.20427 -6.98655 16767 ft 361 kts 76°
2026-04-16 10:31 37.21006 -6.95597 16311 ft 359 kts 76°
2026-04-16 10:31 37.21581 -6.92554 15861 ft 358 kts 76°
2026-04-16 10:32 37.22151 -6.89519 15407 ft 357 kts 76°
2026-04-16 10:32 37.22717 -6.86492 14954 ft 356 kts 76°
2026-04-16 10:32 37.23282 -6.83472 14500 ft 355 kts 76°
2026-04-16 10:32 37.23844 -6.80451 13921 ft 357 kts 76°
2026-04-16 10:33 37.24409 -6.77407 13357 ft 358 kts 76°
2026-04-16 10:33 37.24970 -6.74376 12886 ft 355 kts 76°
2026-04-16 10:33 37.25526 -6.71372 12430 ft 351 kts 76°
2026-04-16 10:33 37.26068 -6.68451 11968 ft 336 kts 76°
2026-04-16 10:34 37.26586 -6.65653 11516 ft 323 kts 76°
2026-04-16 10:34 37.27080 -6.62962 11098 ft 310 kts 76°
2026-04-16 10:34 37.27556 -6.60367 10683 ft 300 kts 76°
2026-04-16 10:34 37.28022 -6.57847 10186 ft 294 kts 76°
2026-04-16 10:35 37.28480 -6.55369 9638 ft 289 kts 76°
2026-04-16 10:35 37.28931 -6.52936 9069 ft 284 kts 76°
2026-04-16 10:35 37.29373 -6.50545 8517 ft 278 kts 77°
2026-04-16 10:35 37.29805 -6.48199 7971 ft 273 kts 77°
2026-04-16 10:36 37.30227 -6.45897 7429 ft 268 kts 77°
2026-04-16 10:36 37.30643 -6.43636 6898 ft 263 kts 77°
2026-04-16 10:36 37.31050 -6.41423 6370 ft 257 kts 77°
2026-04-16 10:36 37.31450 -6.39246 5818 ft 254 kts 77°
2026-04-16 10:37 37.31837 -6.37132 5434 ft 245 kts 79°
2026-04-16 10:37 37.32209 -6.35109 5202 ft 232 kts 79°
2026-04-16 10:37 37.32566 -6.33147 4963 ft 229 kts 79°
2026-04-16 10:37 37.32917 -6.31205 4718 ft 227 kts 78°
2026-04-16 10:38 37.33265 -6.29273 4459 ft 226 kts 78°
2026-04-16 10:38 37.33610 -6.27353 4205 ft 224 kts 79°
2026-04-16 10:38 37.33954 -6.25449 3965 ft 223 kts 79°
2026-04-16 10:38 37.34295 -6.23558 3720 ft 220 kts 78°
2026-04-16 10:39 37.34630 -6.21702 3531 ft 215 kts 78°
2026-04-16 10:39 37.34994 -6.19909 3357 ft 207 kts 72°
2026-04-16 10:39 37.35621 -6.18319 3180 ft 201 kts 58°
2026-04-16 10:39 37.36515 -6.16979 3012 ft 199 kts 44°
2026-04-16 10:40 37.37591 -6.15884 2843 ft 199 kts 40°
2026-04-16 10:40 37.38673 -6.14817 2669 ft 196 kts 40°
2026-04-16 10:40 37.39727 -6.13774 2530 ft 189 kts 40°
2026-04-16 10:40 37.40720 -6.12734 2350 ft 182 kts 49°
2026-04-16 10:41 37.41402 -6.11450 2170 ft 173 kts 69°
2026-04-16 10:41 37.41690 -6.10023 2056 ft 165 kts 87°
2026-04-16 10:41 37.41707 -6.08605 2011 ft 160 kts 91°
2026-04-16 10:41 37.41714 -6.07224 2016 ft 157 kts 89°
2026-04-16 10:42 37.41722 -6.05850 2016 ft 158 kts 89°
2026-04-16 10:42 37.41729 -6.04470 1999 ft 159 kts 90°
2026-04-16 10:42 37.41735 -6.03087 1869 ft 157 kts 89°
2026-04-16 10:42 37.41742 -6.01727 1728 ft 158 kts 89°
2026-04-16 10:43 37.41748 -6.00352 1516 ft 154 kts 90°
2026-04-16 10:43 37.41754 -5.99038 1311 ft 146 kts 88°
2026-04-16 10:43 37.41760 -5.97781 1123 ft 142 kts 89°
2026-04-16 10:43 37.41764 -5.96542 945 ft 141 kts 89°
2026-04-16 10:44 37.41768 -5.95305 772 ft 143 kts 87°
2026-04-16 10:44 37.41768 -5.94047 633 ft 142 kts 88°
2026-04-16 10:44 37.41786 -5.92798 398 ft 143 kts 89°
2026-04-16 10:44 37.41788 -5.91564 199 ft 142 kts 90°
2026-04-16 10:45 37.41795 -5.90356 98 ft 128 kts 89°
2026-04-16 10:45 37.41795 -5.89459 99 ft 77 kts 90°
2026-04-16 10:45 37.41795 -5.88958 103 ft 37 kts 89°
2026-04-16 10:45 37.41802 -5.88801 104 ft 9 kts 64°
2026-04-16 10:46 37.41846 -5.88773 104 ft 3 kts
2026-04-16 10:46 37.41868 -5.88769 104 ft 3 kts
2026-04-16 10:46 37.41900 -5.88763 102 ft 9 kts
2026-04-16 10:46 37.41959 -5.88755 103 ft 8 kts 355°
2026-04-16 10:47 37.41984 -5.88842 102 ft 14 kts 271°
2026-04-16 10:47 37.41984 -5.88970 101 ft 16 kts 270°
2026-04-16 10:47 37.41984 -5.89125 100 ft 20 kts 270°
2026-04-16 10:47 37.41983 -5.89283 100 ft 13 kts 270°
2026-04-16 10:48 37.41996 -5.89371 100 ft 9 kts 306°
2026-04-16 10:48 37.42040 -5.89430 98 ft 10 kts 314°
2026-04-16 10:48 37.42095 -5.89500 98 ft 13 kts 314°
2026-04-16 10:48 37.42168 -5.89594 95 ft 17 kts 314°
2026-04-16 10:49 37.42231 -5.89676 94 ft 13 kts 314°
2026-04-16 10:49 37.42264 -5.89730 94 ft 6 kts 283°
2026-04-16 10:49 37.42247 -5.89779 95 ft 6 kts 229°
2026-04-16 10:49 37.42216 -5.89820 94 ft 8 kts 225°
2026-04-16 10:50 37.42178 -5.89869 94 ft 5 kts 234°
2026-04-16 10:50 37.42185 -5.89908 94 ft 5 kts 303°
2026-04-16 10:50 37.42205 -5.89936 94 ft 4 kts 314°
2026-04-16 10:50 37.42217 -5.89951 94 ft 1 kts 314°